Wind_Speed
31 40 42 43 40 36 37 36 37 38 39 41 39 39 38 37 36 38 38 39 41 39 40 41 43 44 43 43 43 43 43 52 52 46 36 33 38 37 38 39 37 37 37
25 35 41 41 40 40 41 42 44 45 45 47 48 49 44 40 39 40 41 43 44 45 43 43 44 45 46 50 48 49 50 58 49 53 40 41 39 35 37 39 37 37 38
23 27 31 34 37 38 37 36 37 39 40 40 43 46 46 45 44 44 45 47 47 45 43 43 45 46 49 45 52 50 48 56 50 55 43 46 35 33 35 36 36 40 42
21 23 25 28 30 31 33 35 35 35 34 34 35 38 42 45 46 46 47 47 46 42 40 46 44 44 43 47 50 45 51 45 59 59 52 51 39 35 32 33 38 43 44
17 18 20 22 24 25 26 26 26 28 30 32 32 33 35 38 40 41 42 42 37 41 51 42 46 42 44 47 45 49 47 49 55 59 51 47 50 44 25 31 39 47 46
26 27 27 26 27 26 24 23 22 22 22 22 23 24 26 28 29 30 32 34 35 37 40 40 41 42 50 49 47 50 46 49 51 59 57 54 52 38 29 35 41 51 40
31 34 36 35 32 30 29 28 27 26 26 26 25 26 28 30 32 32 31 31 31 33 34 35 37 40 44 48 46 47 45 44 49 48 51 49 56 37 35 36 45 41 40
30 29 29 30 32 34 35 33 31 29 29 29 30 31 31 32 32 31 30 30 31 32 33 33 33 35 37 39 42 42 44 48 45 46 48 50 44 39 40 39 41 36 41
26 26 26 26 27 28 29 28 27 28 29 30 29 29 29 29 28 27 28 29 30 30 29 30 32 34 36 38 36 35 36 43 43 42 44 47 37 39 38 35 35 39 39
19 18 17 17 18 20 23 24 25 25 25 25 26 27 28 29 30 30 30 30 31 30 31 33 34 35 37 35 29 31 33 33 36 43 39 42 40 37 36 33 35 36 44
14 14 14 15 15 17 18 19 21 22 24 24 24 25 26 27 28 28 27 28 29 31 31 32 32 32 31 31 32 35 35 33 32 33 37 41 42 38 33 31 35 41 44
14 14 13 14 14 14 15 16 17 18 20 21 23 24 25 26 26 26 27 30 33 34 33 33 32 33 32 31 31 30 28 29 32 35 39 36 30 28 31 36 40 43 41
15 13 13 13 14 15 16 18 21 23 26 28 29 29 30 31 32 32 33 34 33 32 34 32 32 31 35 34 35 36 35 31 31 31 31 30 26 27 34 38 42 40 46
14 14 15 17 19 22 24 25 25 25 26 26 26 26 26 26 28 28 29 29 29 31 31 31 32 33 34 34 33 31 32 32 30 29 28 26 27 32 38 38 38 40 39
16 20 21 21 21 22 24 24 23 23 23 23 23 23 24 24 24 25 27 28 28 27 28 30 32 32 33 33 33 32 32 32 31 30 28 27 29 33 36 39 38 39 43
19 21 23 23 24 25 26 26 25 25 24 24 24 25 26 26 27 28 29 29 29 28 30 31 32 33 34 34 34 34 33 32 31 31 31 33 35 37 35 40 43 42 45
26 25 23 23 24 24 24 26 26 26 26 26 27 28 29 30 30 31 31 32 33 34 35 34 35 35 36 36 36 35 34 34 34 34 35 35 35 34 42 47 44 46 48
27 25 23 24 24 24 24 25 25 26 27 28 30 31 32 33 33 33 33 34 34 35 35 36 36 36 36 36 36 36 35 35 36 37 37 38 38 40 43 45 48 50 47
26 25 24 24 25 27 27 27 27 27 28 29 29 30 30 31 33 34 34 34 34 34 34 34 34 34 35 36 36 36 36 37 37 37 38 40 42 45 48 48 48 47 46
26 26 26 26 26 27 27 28 28 28 29 29 30 31 32 31 32 33 34 35 35 35 35 36 36 37 37 37 38 39 39 39 39 39 40 40 42 43 43 44 44 44 44
28 29 28 27 28 28 28 29 29 29 30 31 31 32 33 34 35 35 36 36 36 36 37 37 37 38 38 39 39 40 41 42 43 44 44 43 44 45 46 46 45 43 43
30 29 28 28 28 28 28 28 29 30 31 32 34 35 35 36 36 37 37 37 38 39 39 40 40 41 41 42 43 45 46 46 47 48 48 48 47 46 45 45 44 43 42
29 29 28 27 26 27 28 31 32 33 34 35 35 36 37 37 38 38 39 40 41 42 43 43 43 44 44 44 45 47 47 47 47 48 48 48 47 46 45 44 43 42 41
26 28 29 31 33 35 35 35 35 36 36 37 38 39 40 41 42 42 43 44 45 46 46 46 46 45 45 45 45 45 46 46 45 45 45 45 44 44 43 42 40 39 38
28 30 32 32 32 33 35 35 37 38 40 41 42 43 45 46 47 47 48 49 49 48 47 47 46 46 45 45 45 45 44 44 43 42 42 42 42 42 41 39 38 37 35
31 32 34 35 36 37 39 41 42 44 46 47 48 49 50 51 51 51 51 50 49 48 48 48 48 48 47 47 46 45 43 42 41 39 39 38 37 37 37 36 35 34 34
Wind_Direction
258 238 229 237 245 251 256 261 262 264 266 264 263 262 262 262 263 264 267 268 269 271 271 271 275 279 278 279 278 283 287 277 286 276 286 292 277 270 271 273 274 278 281
252 241 234 238 246 253 259 264 269 271 269 267 264 262 260 260 261 263 266 267 267 268 266 269 271 270 274 274 276 279 279 278 282 272 286 282 273 266 269 272 275 276 278
245 242 242 246 251 256 260 262 264 269 271 272 271 267 259 259 261 264 266 267 270 272 279 277 276 274 281 278 273 284 275 294 279 282 274 275 263 265 268 273 274 275 279
248 249 250 251 253 256 259 264 266 268 269 271 275 273 267 265 267 271 273 275 275 278 272 278 278 275 279 278 282 280 283 283 270 285 290 273 270 259 258 268 273 275 277
261 260 258 258 259 261 265 269 272 273 274 275 275 276 275 273 274 277 277 277 272 272 278 269 266 276 264 279 276 278 287 276 274 278 271 277 286 261 254 265 268 272 273
271 268 266 267 266 266 266 269 273 276 278 279 280 279 279 280 281 282 282 281 282 282 283 284 275 271 278 271 275 280 274 274 270 275 272 287 286 260 251 255 263 264 281
268 264 263 264 266 266 267 269 272 274 276 276 278 282 284 283 283 282 281 282 281 281 281 280 279 276 276 276 289 279 278 286 289 285 281 285 290 267 252 252 255 271 279
270 268 265 264 263 263 264 266 269 272 271 273 276 277 276 277 280 282 284 287 290 291 292 293 293 292 290 286 287 282 283 287 286 289 285 288 284 277 258 254 260 274 276
267 264 261 259 259 260 261 263 265 267 270 275 278 280 282 282 282 283 285 286 287 287 286 287 288 289 291 289 291 292 292 288 289 289 285 284 274 266 263 261 267 271 281
259 258 259 259 259 259 261 263 268 273 277 278 278 278 277 279 281 282 284 285 286 287 288 289 291 290 290 289 299 299 290 302 290 289 295 286 279 269 270 269 269 276 280
251 251 255 258 259 260 261 263 266 269 272 275 279 282 284 286 288 290 290 288 288 288 289 293 296 297 296 294 290 290 301 301 298 299 299 285 279 270 273 272 272 272 280
240 240 242 244 248 250 252 255 258 264 270 277 280 281 282 283 285 287 289 290 295 298 298 301 301 301 300 298 295 295 293 298 302 292 280 276 277 275 274 272 265 281 281
242 244 247 250 257 264 270 275 278 280 282 284 284 283 282 283 285 287 288 291 294 293 297 298 298 299 304 304 301 301 301 300 294 292 289 283 278 271 268 267 278 283 285
246 253 262 268 275 280 281 282 284 286 287 288 291 294 295 298 298 297 296 297 298 299 300 300 299 299 300 302 304 304 301 300 298 293 283 274 265 262 265 275 281 282 282
265 279 283 284 284 286 291 294 294 295 295 294 294 296 296 296 298 301 304 304 304 303 301 300 300 302 303 301 300 298 296 295 293 287 280 272 267 267 267 275 280 287 290
274 280 283 283 289 297 303 304 300 297 297 298 299 299 297 296 297 299 299 300 300 299 298 299 300 300 300 299 299 299 298 295 289 284 278 272 269 268 268 272 276 284 286
273 275 276 284 292 297 299 299 300 299 299 298 297 296 297 298 300 299 299 300 301 301 300 300 300 300 300 301 300 299 297 293 289 285 280 275 272 268 265 270 273 284 285
273 276 282 287 290 294 294 293 293 294 294 293 292 291 292 293 293 294 295 295 295 295 296 297 298 299 298 298 297 297 295 294 291 288 284 279 275 269 271 274 277 283 285
271 275 279 283 286 287 287 288 289 289 289 289 289 289 291 291 292 293 294 295 295 296 296 297 297 297 297 297 297 297 296 295 293 290 287 283 281 278 278 281 284 286 287
266 270 274 277 279 280 281 283 283 285 285 287 289 289 290 291 291 291 291 292 293 294 295 296 296 296 296 296 296 296 295 294 294 292 290 286 285 285 286 287 288 289 290
264 268 271 274 277 279 281 282 284 285 286 287 287 288 289 290 290 290 291 292 293 294 296 298 300 299 298 297 295 293 292 292 291 290 289 287 285 284 284 286 287 288 288
263 266 269 273 276 279 281 283 285 286 287 288 289 289 289 289 291 291 292 293 295 296 298 299 299 298 296 295 295 294 293 293 293 290 287 286 285 285 284 285 286 288 289
261 266 269 272 277 280 283 284 285 286 287 288 288 289 290 290 290 290 291 292 293 295 296 296 295 293 292 292 294 294 294 295 296 292 287 283 283 283 284 285 285 287 288
262 270 275 277 278 280 281 282 283 284 285 286 286 287 288 288 288 288 289 290 291 292 292 292 290 289 289 291 293 293 294 295 297 296 292 287 284 284 283 283 282 283 286
277 276 276 276 278 279 279 280 282 284 285 286 287 288 288 289 289 289 289 290 290 290 289 289 289 290 292 293 293 294 295 297 297 296 294 290 286 284 282 280 281 282 283
274 276 277 278 279 280 282 283 285 286 287 287 288 288 289 289 289 289 289 289 289 289 289 289 289 290 291 292 291 292 293 293 294 294 293 291 288 285 282 280 279 279 281
Height
3102 3103 3106 3111 3114 3117 3117 3119 3120 3121 3121 3121 3121 3120 3119 3119 3119 3116 3116 3115 3113 3113 3112 3111 3111 3110 3107 3105 3103 3100 3095 3090 3089 3082 3081 3079 3077 3078 3079 3079 3078 3078 3075
3094 3096 3098 3102 3105 3107 3109 3110 3110 3110 3109 3108 3109 3109 3110 3109 3109 3107 3106 3104 3102 3101 3102 3101 3101 3100 3098 3097 3090 3088 3085 3082 3078 3071 3071 3072 3069 3069 3072 3072 3070 3069 3068
3087 3089 3092 3095 3096 3098 3099 3100 3100 3099 3099 3097 3097 3097 3098 3099 3098 3097 3096 3094 3093 3093 3092 3091 3091 3089 3089 3085 3077 3081 3076 3073 3060 3067 3062 3058 3060 3062 3064 3067 3065 3060 3059
3082 3083 3085 3087 3088 3089 3090 3091 3091 3091 3090 3089 3088 3087 3088 3089 3089 3088 3087 3085 3084 3084 3083 3081 3080 3078 3077 3074 3072 3069 3068 3065 3060 3056 3053 3051 3047 3050 3051 3056 3057 3052 3049
3078 3079 3080 3081 3081 3081 3082 3083 3082 3082 3081 3080 3080 3079 3079 3079 3079 3078 3076 3075 3073 3073 3070 3068 3068 3067 3064 3063 3061 3059 3057 3053 3052 3045 3040 3042 3042 3038 3042 3047 3045 3044 3040
3073 3073 3074 3074 3074 3074 3074 3074 3075 3074 3074 3073 3072 3071 3071 3070 3069 3067 3066 3064 3063 3061 3060 3057 3056 3054 3052 3051 3048 3048 3046 3044 3038 3037 3034 3032 3032 3031 3034 3034 3034 3031 3038
3064 3064 3064 3064 3065 3066 3066 3067 3067 3067 3067 3066 3066 3065 3064 3062 3061 3059 3057 3055 3053 3050 3048 3046 3044 3042 3041 3041 3039 3038 3036 3034 3033 3029 3027 3027 3023 3022 3022 3022 3022 3028 3027
3056 3055 3054 3054 3055 3056 3056 3057 3057 3057 3057 3057 3057 3056 3055 3053 3051 3050 3048 3047 3045 3043 3041 3040 3038 3035 3033 3030 3028 3025 3025 3024 3024 3021 3018 3019 3016 3014 3013 3012 3016 3021 3019
3048 3048 3047 3046 3046 3046 3047 3047 3048 3048 3048 3049 3048 3047 3046 3044 3042 3041 3040 3038 3035 3034 3032 3031 3029 3026 3024 3022 3019 3017 3016 3016 3012 3011 3009 3006 3004 3005 3005 3005 3011 3013 3011
3042 3042 3041 3040 3039 3039 3040 3040 3041 3042 3041 3041 3040 3039 3038 3036 3035 3033 3032 3030 3028 3026 3024 3023 3021 3018 3016 3014 3012 3009 3006 3005 3004 3003 3003 2998 2998 2997 2996 2999 3003 3005 3003
3036 3036 3035 3034 3034 3033 3034 3034 3034 3035 3035 3035 3034 3033 3031 3030 3028 3027 3025 3023 3020 3019 3016 3015 3013 3009 3006 3006 3004 3002 3000 2999 2996 2996 2994 2993 2991 2989 2992 2995 2996 2995 2993
3031 3031 3030 3029 3029 3028 3028 3028 3028 3028 3027 3026 3026 3024 3023 3022 3021 3020 3019 3016 3014 3012 3010 3008 3005 3003 3000 2997 2996 2994 2991 2990 2987 2987 2985 2983 2983 2985 2987 2987 2986 2986 2983
3027 3027 3026 3026 3025 3024 3024 3023 3023 3023 3022 3020 3019 3018 3015 3013 3013 3011 3009 3007 3005 3004 3003 3000 2998 2995 2993 2990 2987 2986 2983 2981 2980 2980 2978 2977 2976 2976 2977 2978 2977 2975 2972
3022 3022 3022 3021 3020 3019 3018 3017 3016 3014 3013 3012 3011 3009 3007 3006 3005 3003 3001 2999 2997 2996 2994 2991 2989 2987 2984 2982 2978 2977 2975 2973 2970 2969 2969 2968 2969 2969 2969 2968 2966 2965 2961
3016 3017 3016 3014 3013 3012 3011 3009 3006 3005 3004 3003 3001 3000 2998 2997 2995 2994 2993 2991 2990 2988 2985 2983 2980 2978 2976 2974 2972 2969 2967 2964 2962 2960 2959 2960 2960 2960 2960 2958 2957 2955 2952
3008 3009 3009 3008 3008 3006 3003 3000 2998 2997 2996 2994 2993 2991 2991 2989 2988 2986 2984 2982 2981 2979 2976 2974 2972 2969 2967 2965 2963 2961 2958 2956 2954 2952 2951 2950 2950 2949 2948 2948 2947 2943 2940
3002 3002 3001 2999 2998 2996 2994 2992 2991 2990 2988 2987 2985 2984 2983 2982 2980 2979 2977 2975 2973 2971 2968 2965 2963 2961 2958 2956 2955 2952 2949 2947 2945 2943 2941 2940 2938 2937 2936 2934 2934 2932 2930
2995 2995 2994 2993 2991 2988 2986 2985 2984 2983 2981 2980 2979 2978 2976 2975 2973 2971 2969 2967 2965 2962 2960 2957 2955 2953 2950 2948 2946 2943 2941 2938 2936 2934 2931 2929 2926 2924 2923 2922 2920 2919 2917
2988 2989 2987 2984 2982 2981 2981 2979 2978 2977 2975 2974 2973 2971 2969 2967 2965 2962 2961 2959 2957 2955 2952 2950 2947 2944 2942 2939 2936 2934 2930 2928 2925 2922 2920 2918 2916 2914 2912 2910 2908 2905 2903
2980 2979 2978 2976 2975 2973 2972 2971 2970 2968 2967 2966 2964 2963 2961 2959 2957 2955 2952 2950 2948 2946 2944 2941 2938 2935 2932 2929 2926 2923 2919 2916 2913 2910 2907 2906 2904 2901 2899 2898 2896 2892 2891
2970 2969 2968 2966 2966 2965 2963 2962 2961 2960 2959 2958 2956 2955 2953 2950 2948 2946 2944 2941 2939 2935 2933 2931 2928 2924 2922 2919 2915 2912 2908 2906 2902 2899 2895 2893 2891 2889 2886 2883 2882 2879 2876
2960 2959 2958 2957 2956 2956 2955 2954 2953 2952 2950 2948 2946 2944 2942 2940 2938 2935 2933 2930 2928 2925 2921 2919 2916 2914 2909 2907 2903 2900 2896 2893 2889 2886 2883 2880 2877 2876 2872 2870 2869 2865 2863
2950 2950 2949 2948 2947 2946 2946 2945 2944 2942 2940 2938 2937 2935 2933 2929 2927 2924 2923 2920 2916 2914 2910 2906 2903 2900 2896 2893 2889 2885 2882 2878 2875 2871 2868 2865 2863 2861 2859 2857 2854 2853 2851
2940 2940 2940 2940 2939 2938 2936 2934 2933 2930 2928 2927 2925 2923 2921 2918 2915 2912 2910 2908 2904 2901 2897 2894 2890 2887 2883 2879 2875 2871 2867 2864 2860 2856 2853 2851 2849 2847 2846 2844 2843 2841 2838
2932 2931 2930 2929 2927 2925 2924 2922 2920 2919 2917 2914 2912 2910 2907 2906 2903 2899 2896 2893 2891 2887 2884 2880 2876 2872 2869 2866 2862 2857 2854 2850 2847 2844 2839 2837 2834 2834 2833 2831 2830 2828 2827
2922 2921 2919 2918 2915 2914 2911 2910 2908 2906 2904 2902 2899 2896 2892 2891 2888 2884 2880 2879 2875 2872 2868 2865 2862 2858 2854 2851 2847 2844 2840 2837 2834 2830 2828 2825 2823 2821 2820 2819 2818 2817 2816